Greenland, AR

8:53 PM CST on February 24, 2017 (GMT -0600)
Drake

Weather History for KFYV - October, 2012

Change the Weather History Date:

Sunday, October 21, 2012

  Actual Average Record
Temperature  
Mean Temperature 66 °F 56 °F  
Max Temperature 78 °F 69 °F 85 °F (1978)
Min Temperature 55 °F 44 °F 27 °F (1952)
Degree Days  
Heating Degree Days 0 9  
Month to date heating degree days 143  
Since 1 July heating degree days 195  
Cooling Degree Days 1 0  
Month to date cooling degree days 18  
Year to date cooling degree days 1301  
Growing Degree Days 16 (Base 50)    
Moisture  
Dew Point 60 °F    
Average Humidity 73    
Maximum Humidity 81    
Minimum Humidity 66    
Precipitation  
Precipitation 0.00 in 0.15 in 1.00 in (1954)
Month to date precipitation 2.96  
Year to date precipitation 39.67  
Sea Level Pressure  
Sea Level Pressure 29.85 in    
Wind  
Wind Speed 8 mph (South)    
Max Wind Speed 20 mph    
Max Gust Speed 31 mph    
Visibility 10 miles    
Events      
T = Trace of Precipitation, MM = Missing Value Source: NWS Daily Summary

Daily Weather History Graph

Daily Weather History Graph

Search for Another Location

Airport or City:

Trip Planner

Search our weather history database for the weather conditions in past years. The results will help you decide how hot, cold, wet, or windy it might be!

Date:

Astronomy

Oct. 21, 2012 Rise Set
Actual Time 7:29 AM CDT 6:32 PM CDT
Civil Twilight 7:03 AM CDT 6:58 PM CDT
Nautical Twilight 6:33 AM CDT 7:28 PM CDT
Astronomical Twilight 6:03 AM CDT 7:58 PM CDT
Moon 1:47 PM CDT (10/21) No Moon Set
Length of Visible Light 11h 55m
Length of Day
11h 03m
Waxing Crescent, 45% of the Moon is Illuminated
Oct 21
Waxing Crescent
Oct 21
First Quarter
Oct 29
Full
Nov 6
Last Quarter
Nov 13
New

Hourly Weather History & Observations

Time (CDT) Temp. Dew Point Humidity Pressure Visibility Wind Dir Wind Speed Gust Speed Precip Events Conditions
12:53 AM 59.0 °F 48.0 °F 67% 29.82 in 10.0 mi Calm Calm - N/A   Clear
1:53 AM 59.0 °F 48.0 °F 67% 29.82 in 10.0 mi Calm Calm - N/A   Clear
2:53 AM 55.0 °F 48.9 °F 80% 29.82 in 10.0 mi Calm Calm - N/A   Partly Cloudy
3:53 AM 57.0 °F 50.0 °F 77% 29.81 in 10.0 mi Calm Calm - N/A   Clear
4:53 AM 57.9 °F 50.0 °F 75% 29.81 in 10.0 mi South 6.9 mph - N/A   Clear
5:53 AM 64.0 °F 53.1 °F 67% 29.82 in 10.0 mi South 10.4 mph - N/A   Clear
6:53 AM 64.0 °F 54.0 °F 70% 29.84 in 8.0 mi South 9.2 mph - N/A   Clear
7:53 AM 64.9 °F 55.9 °F 73% 29.86 in 8.0 mi South 9.2 mph - N/A   Mostly Cloudy
8:53 AM 66.9 °F 57.9 °F 73% 29.88 in 10.0 mi SSW 10.4 mph - N/A   Overcast
9:53 AM 69.1 °F 61.0 °F 75% 29.89 in 10.0 mi South 12.7 mph - N/A   Overcast
10:53 AM 73.0 °F 63.0 °F 71% 29.89 in 10.0 mi South 15.0 mph 18.4 mph N/A   Mostly Cloudy
11:53 AM 75.0 °F 64.0 °F 69% 29.87 in 10.0 mi South 15.0 mph 27.6 mph N/A   Mostly Cloudy
12:32 PM 75.2 °F 64.4 °F 69% 29.90 in 10.0 mi South 19.6 mph 26.5 mph N/A   Scattered Clouds
12:53 PM 75.9 °F 64.0 °F 67% 29.87 in 10.0 mi South 17.3 mph 28.8 mph N/A   Partly Cloudy
1:53 PM 75.2 °F 64.4 °F 69% 29.88 in 10.0 mi South 19.6 mph 25.3 mph N/A   Mostly Cloudy
2:53 PM 77.0 °F 66.0 °F 69% 29.85 in 10.0 mi South 13.8 mph - N/A   Mostly Cloudy
3:53 PM 77.0 °F 64.9 °F 66% 29.83 in 10.0 mi South 15.0 mph 31.1 mph N/A   Mostly Cloudy
4:53 PM 75.0 °F 64.9 °F 71% 29.83 in 10.0 mi SSE 13.8 mph 20.7 mph N/A   Mostly Cloudy
5:53 PM 73.9 °F 64.0 °F 71% 29.84 in 10.0 mi SSE 12.7 mph 19.6 mph N/A   Mostly Cloudy
6:53 PM 73.0 °F 64.0 °F 73% 29.84 in 10.0 mi SSE 16.1 mph 24.2 mph N/A   Mostly Cloudy
7:00 PM 71.6 °F 64.4 °F 78% 29.87 in 10.0 mi SSE 15.0 mph 23.0 mph N/A   Clear
7:53 PM 72.0 °F 64.0 °F 76% 29.84 in 10.0 mi South 15.0 mph 21.9 mph N/A   Clear
8:53 PM 72.0 °F 64.0 °F 76% 29.86 in 10.0 mi South 10.4 mph 20.7 mph N/A   Partly Cloudy
9:53 PM 72.0 °F 64.9 °F 78% 29.88 in 10.0 mi South 11.5 mph 18.4 mph N/A   Clear
10:53 PM 72.0 °F 64.9 °F 78% 29.89 in 10.0 mi South 9.2 mph - N/A   Clear
11:53 PM 71.1 °F 64.9 °F 81% 29.89 in 10.0 mi South 8.1 mph - N/A   Clear